Regional Weather Roundup
Issued by NWS

Home | Current Version | Previous Version | Text Only | Print | Product List | Glossary Off
Versions: 1 2 3 4 5 6 7 8 9 10 11 12 13 14 15 16 17 18 19 20 21 22 23 24 25 26 27 28 29 30 31 32 33 34 35 36 37 38 39 40 41 42 43 44 45 46 47 48 49 50

555
ASUS45 KBOU 281307
RWRCO

WEATHER ROUNDUP FOR COLORADO
NATIONAL WEATHER SERVICE DENVER/BOULDER CO
700 AM MDT FRI APR 28 2017

NOTE: "FAIR" INDICATES FEW OR NO CLOUDS BELOW 12000 FEET WITH NO
SIGNIFICANT WEATHER AND/OR OBSTRUCTIONS TO VISIBILITY.

COZ001>005-013-030-031-281400-
...NORTHWEST COLORADO...

CITY           SKY/WX    TMP DP  RH WIND       PRES   REMARKS
CRAIG          CLOUDY    30  25  81 SE6       29.76S WCI  24
HAYDEN         FAIR      27  21  80 W5        29.75S WCI  21
MEEKER         LGT SNOW  29  26  89 E6        29.76R VSB 3/4 WCI  23
MOUNT WERNER   NOT AVBL
STEAMBOAT SPGS CLOUDY    27  24  90 SW8       29.74R WCI  19
WALDEN           N/A     21  18  86 S6        29.70S WCI  14
$$

COZ006>008-011-281400-
...WEST CENTRAL VALLEYS...

CITY           SKY/WX    TMP DP  RH WIND       PRES   REMARKS
GRAND JUNCTION FAIR      29  20  69 NW5       29.76R WCI  24
MONTROSE       FAIR      30  18  60 SE6       29.79S WCI  24
EAGLE          MOCLDY    27  23  86 E7        29.78R WCI  19
RIFLE          CLOUDY    31  28  89 NE3       29.76S
DELTA          FAIR      32  22  66 W6        29.77R WCI  27
NUCLA          FAIR      30  14  51 E7        29.80S WCI  23
$$

COZ017>023-064>068-281400-
...SOUTHWEST COLORADO...

CITY           SKY/WX    TMP DP  RH WIND       PRES   REMARKS
DURANGO        FAIR      35  22  58 SW8       29.74S WCI  29
CORTEZ         CLOUDY    36  21  54 CALM      29.78R
PAGOSA SPRINGS FAIR      31  16  54 CALM      29.75F
TELLURIDE      CLOUDY    25  13  61 CALM      29.76F
WOLF CREEK PAS MOCLDY    12  12 100 S15       29.77S WCI  -4
$$

COZ009-010-012-014-032>034-037-058>063-281400-
...CENTRAL COLORADO...

CITY           SKY/WX    TMP DP  RH WIND       PRES   REMARKS
ASPEN          LGT SNOW  25  20  81 CALM      29.73R VSB 1
BUENA VISTA    FAIR      24  14  66 N7        29.70S WCI  16
COPPER MTN     CLOUDY    14   9  79 MISG      29.67F
BERTHOUD PASS  CLOUDY     7  -4  61 N12G32    29.65R WCI  -9
COTTONWOOD PAS FAIR      27  10  50 W10G23    29.69R WCI  17
GUNNISON       FAIR      24  21  88 CALM      29.75R
KREMMLING      CLOUDY    34  21  60 W6        29.74S WCI  29
LEADVILLE      FAIR      11   6  81 NE7       29.68S WCI   0
MONARCH PASS   CLOUDY    12  10  92 W28       29.79R WCI  -9
SALIDA         FAIR      27  19  70 CALM      29.78R
SUNLIGHT       LGT SNOW N/A N/A N/A SW3       29.75S VSB 1
WILKERSON PASS FAIR      14   5  67 W8G16     29.69S WCI   3
$$

COZ069>075-281400-
...SAN LUIS VALLEY/SANGRE DE CRISTO MOUNTAINS...

CITY           SKY/WX    TMP DP  RH WIND       PRES   REMARKS
ALAMOSA        FAIR      27  23  85 CALM      29.72R
LA VETA PASS   MOCLDY    23  16  74 S14G25    29.83R WCI  11
SAGUACHE       NOT AVBL
$$

COZ035-036-038>040-281400-
...NORTHERN COLORADO FRONT RANGE...

CITY           SKY/WX    TMP DP  RH WIND       PRES   REMARKS
DENVER INTL AP FAIR      40  17  39 SW12      29.64R
DMNS CITY PARK   N/A     38  18  44 S6        29.65R
AURORA         PTCLDY    33  20  59 S7        29.66R WCI  26
FRONT RANGE AP NOT AVBL
ERIE MUNI ARPT FAIR      33  26  77 W3        29.64R
BOULDER MUN AP FAIR      36  18  48 S5        29.64R
CENTENNIAL     FAIR      33  20  58 S6        29.66R WCI  28
BROOMFIELD     PTCLDY    37  16  41 NW3       29.65R
FORT COLLINS   FOG       33  33 100 CALM      29.66R VSB<1/4
LONGMONT       FAIR      36  29  75 W5        29.66R HAZE
$$

COZ041-046-047-076>085-087-088-281400-
...PIKES PEAK/PALMER DIVIDE AND SOUTHERN FOOTHILLS...

CITY           SKY/WX    TMP DP  RH WIND       PRES   REMARKS
COLO. SPRINGS  FAIR      35  25  66 W6        29.67R WCI  30
A. F. ACADEMY  FAIR      38   6  27 W7G17     29.66S
SCHRIEVER AFB  FAIR      33  26  76 NW9       29.66S WCI  25
ELLICOTT       FAIR     N/A N/A N/A E5        29.64F
FALCON         FAIR      33  17  51 W6        29.68R WCI  28
FORT CARSON    FAIR      33  26  77 NW7       29.66R WCI  26
LIMON          FAIR      30  28  92 N3        29.67R
MONUMENT HILL  FAIR      30  18  59 W5        29.69R WCI  25
TRINIDAD       FAIR      35  25  66 W7        29.69S WCI  29
$$

COZ042>045-048>051-090-091-281400-
...NORTHEAST COLORADO...

CITY           SKY/WX    TMP DP  RH WIND       PRES   REMARKS
GREELEY ARPT   FAIR      34  34 100 S3        29.67R FOG
AKRON          FAIR      31  30  96 W3        29.65R
BURLINGTON     NOT AVBL
WRAY           NOT AVBL
STERLING       PTSUNNY   37  37 100 CALM      29.64R
HOLYOKE        CLOUDY    39  37  93 E13       29.67R FOG
FORT MORGAN    FAIR      31  30  97 W6        29.66R WCI  25
$$

COZ086-089-092>099-281400-
...SOUTHEAST COLORADO...

CITY           SKY/WX    TMP DP  RH WIND       PRES   REMARKS
PUEBLO         FAIR      38  27  64 SW5       29.66R
LA JUNTA       FAIR      41  37  86 S7        29.67R
LAMAR          FAIR      36  34  92 SW3       29.66S
SPRINGFIELD      N/A     41  38  89 SW7       29.68S
$$




USA.gov is the U.S. government's official web portal to all federal, state and local government web resources and services.